Stations météo

réclame
Mon MeteoGroup
Kiruna Airport, Suède (2044): Température de l'air & dewpoint: 22.05.2018 12:00:00 - 28.05.2018 12:00:00 (CEST)Kiruna Airport, Suède (2044): Vitesse du vent: 22.05.2018 12:00:00 - 28.05.2018 12:00:00 (CEST)Kiruna Airport, Suède (2044): Direction du vent: 22.05.2018 12:00:00 - 28.05.2018 12:00:00 (CEST)Kiruna Airport, Suède (2044): reduced air pressure: 22.05.2018 12:00:00 - 28.05.2018 12:00:00 (CEST)Kiruna Airport, Suède (2044): visibility: 22.05.2018 12:00:00 - 28.05.2018 12:00:00 (CEST)
Date & Time tt [°C] td [°C] ff [km/h] ff [knt] dd ppp [hPa] vv [km]
28.05.2018 12:00:00 - - - - - - -
28.05.2018 11:00:00 13,4 4,0 8 4 NE 1024,5 10
28.05.2018 10:00:00 12,3 4,3 5 3 - 1025,5 10
28.05.2018 09:00:00 12,8 0,2 8 4 SSW 1025,6 10
28.05.2018 08:00:00 10,5 1,9 0 0 N 1026,3 10
28.05.2018 07:00:00 9,1 3,1 4 2 SSW 1027,1 10
28.05.2018 06:00:00 7,2 2,1 0 0 N 1027,5 10
28.05.2018 05:00:00 5,5 2,5 0 0 N 1028,3 10
28.05.2018 04:00:00 4,2 2,1 2 1 - 1028,7 10
28.05.2018 03:00:00 4,8 2,2 2 1 W 1028,6 10
28.05.2018 02:00:00 6,2 2,5 0 0 N 1028,7 10
28.05.2018 01:00:00 5,3 2,8 5 3 N 1029,1 10
28.05.2018 00:00:00 7,1 3,2 4 2 - 1028,7 10
27.05.2018 23:00:00 7,1 3,0 8 4 E 1029,0 10
27.05.2018 22:00:00 8,2 3,1 8 4 NNW 1028,6 10
27.05.2018 21:00:00 8,9 2,9 5 3 NNW 1028,5 10
27.05.2018 20:00:00 8,9 2,7 8 4 NNE 1028,8 10
27.05.2018 19:00:00 8,2 2,4 11 6 NE 1029,1 10
27.05.2018 18:00:00 9,7 1,8 15 8 W 1028,8 10
27.05.2018 17:00:00 10,2 1,8 21 11 WSW 1028,3 10
27.05.2018 16:00:00 9,7 1,3 26 14 WSW 1028,7 10
27.05.2018 15:00:00 9,2 0,6 26 14 WSW 1029,0 10
27.05.2018 14:00:00 9,3 -0,3 21 11 WSW 1029,5 10
27.05.2018 13:00:00 8,4 -0,6 18 10 WSW 1030,3 10
27.05.2018 12:00:00 7,5 -2,0 13 7 WSW 1030,9 10
27.05.2018 11:00:00 6,6 -1,3 4 2 - 1031,5 10
27.05.2018 10:00:00 6,5 -1,4 5 3 NNW 1031,5 10
27.05.2018 09:00:00 6,7 -2,2 15 8 N 1031,4 10
27.05.2018 08:00:00 6,4 -2,5 8 4 NNW 1031,4 10
27.05.2018 07:00:00 5,6 -1,1 11 6 NNW 1031,0 10
27.05.2018 06:00:00 4,8 -1,2 8 4 N 1031,0 10
27.05.2018 05:00:00 5,2 -4,1 13 7 WNW 1030,6 10
27.05.2018 04:00:00 5,0 -4,6 15 8 WNW 1030,2 10
27.05.2018 03:00:00 4,5 -4,5 18 10 WNW 1030,5 10
27.05.2018 02:00:00 4,7 -4,8 18 10 WNW 1030,5 10
27.05.2018 01:00:00 4,7 -5,1 4 2 - 1030,4 10
27.05.2018 00:00:00 4,6 -4,4 11 6 NW 1029,8 10
26.05.2018 23:00:00 4,6 -3,4 9 5 NNW 1029,7 10
26.05.2018 22:00:00 6,2 -3,7 9 5 NNW 1029,1 10
26.05.2018 21:00:00 7,3 -4,5 26 14 NW 1028,6 10
26.05.2018 20:00:00 8,3 -4,5 24 13 WNW 1028,4 10
26.05.2018 19:00:00 8,6 -4,2 24 13 W 1028,1 10
26.05.2018 18:00:00 9,6 -4,7 22 12 WNW 1027,8 10
26.05.2018 17:00:00 9,9 -5,6 26 14 WNW 1027,6 10
26.05.2018 16:00:00 10,5 -5,5 26 14 WNW 1027,4 10
26.05.2018 15:00:00 10,4 -5,2 26 14 W 1027,5 10
26.05.2018 14:00:00 10,8 -4,8 28 15 W 1027,1 10
26.05.2018 13:00:00 10,6 -5,4 29 16 W 1026,9 10
26.05.2018 12:00:00 9,7 -5,8 22 12 WNW 1027,3 10
26.05.2018 11:00:00 9,4 -3,5 21 11 W 1026,9 10
26.05.2018 10:00:00 8,5 -3,4 22 12 WSW 1026,7 10
26.05.2018 09:00:00 8,3 -2,9 24 13 W 1026,4 10
26.05.2018 08:00:00 8,6 -3,4 26 14 W 1025,8 10
26.05.2018 07:00:00 7,9 -2,7 26 14 W 1025,7 10
26.05.2018 06:00:00 6,5 -2,9 22 12 W 1026,1 10
26.05.2018 05:00:00 6,1 -2,3 21 11 WSW 1025,5 10
26.05.2018 04:00:00 4,9 -2,0 11 6 SSW 1025,6 10
26.05.2018 03:00:00 4,3 -2,3 15 8 SW 1026,1 10
26.05.2018 02:00:00 3,7 -1,3 8 4 W 1026,1 10
26.05.2018 01:00:00 6,3 -1,1 4 2 ENE 1025,4 10
26.05.2018 00:00:00 7,6 -0,1 18 10 W 1024,9 10
25.05.2018 23:00:00 9,0 2,3 21 11 W 1024,4 10
25.05.2018 22:00:00 10,2 3,0 29 16 W 1023,9 10
25.05.2018 21:00:00 12,0 2,2 39 21 WSW 1022,5 10
25.05.2018 20:00:00 13,6 1,6 39 21 W 1022,1 10
25.05.2018 19:00:00 15,3 1,8 26 14 W 1021,8 10
25.05.2018 18:00:00 16,5 -0,3 29 16 WSW 1021,0 10
25.05.2018 17:00:00 16,6 -2,0 31 17 W 1020,8 10
25.05.2018 16:00:00 17,4 -0,8 29 16 W 1020,4 10
25.05.2018 15:00:00 17,9 -0,4 28 15 WSW 1020,1 10
25.05.2018 14:00:00 18,0 -0,8 28 15 WSW 1020,2 10
25.05.2018 13:00:00 17,5 -2,2 22 12 WSW 1020,3 10
25.05.2018 12:00:00 17,7 -2,6 18 10 W 1020,1 10
25.05.2018 11:00:00 16,8 -3,3 8 4 WSW 1020,6 10
25.05.2018 10:00:00 16,2 -4,4 4 2 W 1020,7 10
25.05.2018 09:00:00 13,7 -4,0 2 1 SE 1021,7 10
25.05.2018 08:00:00 9,4 -1,3 2 1 NE 1023,1 10
25.05.2018 07:00:00 7,5 -1,7 5 3 NE 1023,8 10
25.05.2018 06:00:00 6,6 -0,8 4 2 - 1024,4 10
25.05.2018 05:00:00 7,4 -4,1 5 3 SW 1024,6 10
25.05.2018 04:00:00 5,7 -0,2 4 2 - 1025,2 10
25.05.2018 03:00:00 5,4 -2,2 5 3 SW 1025,4 10
25.05.2018 02:00:00 5,8 -1,6 4 2 - 1025,2 10
25.05.2018 01:00:00 7,4 -1,6 0 0 N 1025,2 10
25.05.2018 00:00:00 7,5 -0,7 4 2 - 1025,3 10
24.05.2018 23:00:00 8,1 -1,2 0 0 N 1025,5 10
24.05.2018 22:00:00 9,7 -1,7 5 3 - 1025,0 10
24.05.2018 21:00:00 10,6 -1,8 8 4 - 1024,7 10
24.05.2018 20:00:00 12,4 -8,2 16 9 WSW 1024,1 10
24.05.2018 19:00:00 12,8 -9,6 18 10 W 1024,2 10
24.05.2018 18:00:00 11,0 -2,8 13 7 NE 1024,7 10
24.05.2018 17:00:00 12,1 -4,5 15 8 WNW 1024,9 10
24.05.2018 16:00:00 11,7 -4,9 24 13 W 1025,4 10
24.05.2018 15:00:00 12,8 -6,2 24 13 WSW 1025,0 10
24.05.2018 14:00:00 12,2 -4,4 24 13 W 1025,2 10
24.05.2018 13:00:00 11,4 -4,7 22 12 WSW 1025,9 10
24.05.2018 12:00:00 11,5 -4,6 28 15 WSW 1026,3 10
24.05.2018 11:00:00 10,2 -5,0 22 12 W 1026,8 10
24.05.2018 10:00:00 9,1 -5,2 15 8 W 1027,5 10
24.05.2018 09:00:00 8,3 -4,2 11 6 WSW 1027,8 10
24.05.2018 08:00:00 6,5 -3,2 9 5 SSW 1028,5 10
24.05.2018 07:00:00 4,2 -2,0 9 5 SW 1029,5 10
24.05.2018 06:00:00 3,3 -2,2 15 8 SSW 1029,6 10
24.05.2018 05:00:00 1,9 -2,6 8 4 S 1029,9 10
24.05.2018 04:00:00 1,8 -3,3 9 5 SSW 1030,5 10
24.05.2018 03:00:00 0,7 -3,0 9 5 SSW 1030,9 10
24.05.2018 02:00:00 -0,2 -3,4 8 4 S 1031,1 10
24.05.2018 01:00:00 0,3 -3,8 9 5 SSW 1031,5 10
24.05.2018 00:00:00 0,0 -4,1 8 4 S 1031,6 10
23.05.2018 23:00:00 3,2 -3,2 4 2 SW 1030,8 10
23.05.2018 22:00:00 4,6 -4,4 5 3 N 1030,2 10
23.05.2018 21:00:00 5,6 -4,0 15 8 N 1029,8 10
23.05.2018 20:00:00 6,3 -3,6 18 10 N 1029,4 10
23.05.2018 19:00:00 7,1 -4,6 21 11 N 1029,0 10
23.05.2018 18:00:00 8,1 -4,0 21 11 NNW 1028,5 10
23.05.2018 17:00:00 7,3 -4,8 18 10 NNW 1028,7 10
23.05.2018 16:00:00 8,4 -4,1 24 13 N 1028,1 10
23.05.2018 15:00:00 8,2 -4,0 18 10 NNE 1027,8 10
23.05.2018 14:00:00 8,2 -4,9 15 8 N 1027,3 10
23.05.2018 13:00:00 8,4 -5,5 18 10 N 1027,1 10
23.05.2018 12:00:00 6,8 -5,2 18 10 NNW 1027,1 10
23.05.2018 11:00:00 6,9 -4,2 18 10 N 1027,0 10
23.05.2018 10:00:00 5,7 -4,2 22 12 NNW 1027,2 10
23.05.2018 09:00:00 4,6 -3,7 21 11 NNW 1026,8 10
23.05.2018 08:00:00 4,5 -4,0 24 13 NNW 1026,2 10
23.05.2018 07:00:00 3,8 -2,8 22 12 N 1025,9 10
23.05.2018 06:00:00 4,0 -1,6 5 3 NNW 1025,3 10
23.05.2018 05:00:00 2,8 -1,9 13 7 NW 1025,0 10
23.05.2018 04:00:00 3,0 -3,4 16 9 NW 1024,2 10
23.05.2018 03:00:00 1,6 -3,3 8 4 NW 1024,5 10
23.05.2018 02:00:00 1,9 -2,2 18 10 NNW 1023,9 10
23.05.2018 01:00:00 2,0 -1,1 15 8 NW 1023,9 10
23.05.2018 00:00:00 2,9 0,1 15 8 N 1023,4 10
22.05.2018 23:00:00 3,0 0,1 9 5 NE 1023,0 10
22.05.2018 22:00:00 4,3 0,1 13 7 N 1022,3 10
22.05.2018 21:00:00 6,3 -1,1 15 8 NNW 1021,6 10
22.05.2018 20:00:00 6,8 -1,6 21 11 N 1021,0 10
22.05.2018 19:00:00 6,2 -0,5 18 10 NNW 1021,1 10
22.05.2018 18:00:00 8,2 1,4 15 8 NNW 1020,0 10
22.05.2018 17:00:00 7,4 1,3 18 10 N 1020,2 10
22.05.2018 16:00:00 8,1 1,7 15 8 N 1019,4 10
22.05.2018 15:00:00 12,4 3,3 31 17 N 1017,6 10
22.05.2018 14:00:00 16,8 2,0 29 16 SW 1015,5 10
22.05.2018 13:00:00 16,7 3,7 26 14 SW 1015,6 10
22.05.2018 12:00:00 15,9 3,7 26 14 SSW 1016,4 10

tt = Température de l'air
td = dewpoint
ff = Vitesse du vent
dd = Direction du vent
ppp = reduced air pressure
vv = visibility

stations d'obs. à proximité